Honolulu, HI

3:54 AM HST on June 24, 2017 (GMT -1000)
Honolulu International

Weather History for PHNL - July, 2013

Change the Weather History Date:

Sunday, July 7, 2013

  Actual Average Record
Temperature  
Mean Temperature 80 °F 81 °F  
Max Temperature 88 °F 88 °F 91 °F (1984)
Min Temperature 72 °F 74 °F 66 °F (1990)
Degree Days  
Heating Degree Days 0 0  
Month to date heating degree days 0 0  
Since 1 June heating degree days 0 0  
Since 1 July heating degree days 0 0  
Cooling Degree Days 15 16  
Month to date cooling degree days 95 112  
Year to date cooling degree days 1964 2070  
Since 1 June cooling degree days 504 568  
Growing Degree Days 30 (Base 50)    
Moisture  
Dew Point 65 °F    
Average Humidity 64    
Maximum Humidity 84    
Minimum Humidity 43    
Precipitation  
Precipitation 0.00 in 0.02 in 0.27 in (1967)
Month to date precipitation 0.02 0.08  
Year to date precipitation 8.65 7.91  
Snow  
Snow 0.00 in - - ()
Month to date snowfall 0.0  
Since 1 June snowfall 0.0  
Since 1 July snowfall 0.0  
Snow Depth 0.00 in    
Sea Level Pressure  
Sea Level Pressure 29.95 in    
Wind  
Wind Speed 5 mph (NE)    
Max Wind Speed 17 mph    
Max Gust Speed 21 mph    
Visibility 10 miles    
Events      
T = Trace of Precipitation, MM = Missing Value Source: NWS Daily Summary

Daily Weather History Graph

Daily Weather History Graph

Search for Another Location

Airport or City:

Trip Planner

Search our weather history database for the weather conditions in past years. The results will help you decide how hot, cold, wet, or windy it might be!

Date:

Astronomy

Jul. 07, 2013 Rise Set
Actual Time 5:55 AM HST 7:17 PM HST
Civil Twilight 5:30 AM HST 7:42 PM HST
Nautical Twilight 5:01 AM HST 8:11 PM HST
Astronomical Twilight 4:31 AM HST 8:42 PM HST
Moon 5:33 AM HST (7/7) 6:59 PM HST (7/7)
Length of Visible Light 14h 11m
Length of Day
13h 22m
Waning Crescent, 0% of the Moon is Illuminated
Jul 7
Waning Crescent
Jul 7
New
Jul 15
First Quarter
Jul 22
Full
Jul 29
Last Quarter

Hourly Weather History & Observations

Time (HST) Temp. Heat Index Dew Point Humidity Pressure Visibility Wind Dir Wind Speed Gust Speed Precip Events Conditions
12:53 AM 75.0 °F - 66.9 °F 76% 29.99 in 10.0 mi NNE 3.5 mph - N/A   Scattered Clouds
1:53 AM 75.0 °F - 66.9 °F 76% 29.98 in 10.0 mi Calm Calm - N/A   Scattered Clouds
2:53 AM 73.9 °F - 66.9 °F 79% 29.96 in 10.0 mi Calm Calm - N/A   Scattered Clouds
3:53 AM 73.0 °F - 66.0 °F 79% 29.96 in 10.0 mi North 3.5 mph - N/A   Scattered Clouds
4:53 AM 72.0 °F - 66.0 °F 81% 29.95 in 10.0 mi North 3.5 mph - N/A   Partly Cloudy
5:53 AM 72.0 °F - 66.0 °F 81% 29.96 in 10.0 mi Calm Calm - N/A   Scattered Clouds
6:53 AM 75.0 °F - 66.9 °F 76% 29.97 in 10.0 mi NW 3.5 mph - N/A   Scattered Clouds
7:53 AM 79.0 °F - 66.0 °F 64% 29.97 in 10.0 mi North 4.6 mph - N/A   Scattered Clouds
8:53 AM 82.0 °F 83.1 °F 63.0 °F 52% 29.97 in 10.0 mi Variable 5.8 mph - N/A   Scattered Clouds
9:53 AM 82.0 °F 84.5 °F 66.9 °F 60% 29.97 in 10.0 mi SSE 8.1 mph - N/A   Mostly Cloudy
10:53 AM 84.9 °F 85.9 °F 63.0 °F 48% 29.96 in 10.0 mi NE 9.2 mph - N/A   Mostly Cloudy
11:53 AM 87.1 °F 87.8 °F 63.0 °F 44% 29.95 in 10.0 mi East 8.1 mph - N/A   Mostly Cloudy
12:53 PM 84.9 °F 86.1 °F 64.0 °F 49% 29.94 in 10.0 mi East 6.9 mph - N/A   Mostly Cloudy
1:53 PM 86.0 °F 86.8 °F 63.0 °F 46% 29.93 in 10.0 mi East 11.5 mph 17.3 mph N/A   Mostly Cloudy
2:53 PM 87.1 °F 87.5 °F 62.1 °F 43% 29.92 in 10.0 mi East 10.4 mph - N/A   Mostly Cloudy
3:53 PM 86.0 °F 87.3 °F 64.0 °F 48% 29.91 in 10.0 mi ENE 13.8 mph - N/A   Mostly Cloudy
4:53 PM 82.9 °F 84.6 °F 64.9 °F 54% 29.91 in 10.0 mi ENE 13.8 mph - N/A   Mostly Cloudy
5:53 PM 82.9 °F 85.4 °F 66.9 °F 58% 29.91 in 10.0 mi ENE 9.2 mph - N/A   Mostly Cloudy
6:53 PM 81.0 °F 83.0 °F 66.0 °F 60% 29.93 in 10.0 mi ENE 12.7 mph - N/A   Scattered Clouds
7:53 PM 79.0 °F - 66.0 °F 64% 29.95 in 10.0 mi East 11.5 mph 18.4 mph N/A   Partly Cloudy
8:53 PM 79.0 °F - 66.9 °F 66% 29.97 in 10.0 mi NE 8.1 mph - N/A   Partly Cloudy
9:53 PM 77.0 °F - 66.9 °F 71% 29.98 in 10.0 mi NNE 4.6 mph - N/A   Partly Cloudy
10:53 PM 77.0 °F - 66.9 °F 71% 29.99 in 10.0 mi ENE 9.2 mph - N/A   Partly Cloudy
11:53 PM 77.0 °F - 66.0 °F 69% 29.98 in 10.0 mi NNE 9.2 mph - N/A   Partly Cloudy